FW5866 Weather Reports


Display with metric or nautical units.
time (UTC)temp
F
wind
direction
speed
MPH
gust
MPH
rain 1hr
in
rain 24hr
in
rain mn
in
humidity
%
barometer
mb
20260505023051 66 0 0.0 0.0 0.00 0.00 0.00 75 1014.3
20260505021539 66 0 0.0 0.0 0.00 0.00 0.00 75 1014.2
20260505020059 67 0 0.0 0.0 0.00 0.00 0.00 74 1014.4
20260505014552 67 0 0.0 0.0 0.00 0.00 0.00 73 1014.3
20260505013103 67 0 0.0 5.0 0.00 0.00 0.00 73 1014.2
20260505011546 68 0 1.0 5.0 0.00 0.00 0.00 72 1014.3
20260505010110 69 0 0.0 5.0 0.00 0.00 0.00 71 1014.1
20260505004548 69 165 2.0 6.0 0.00 0.00 0.00 70 1014.4
20260505003054 70 160 3.0 5.0 0.00 0.00 0.00 70 1014.4
20260505001553 71 164 2.0 9.0 0.00 0.00 0.00 69 1014.3
20260505000047 72 136 1.0 9.0 0.00 0.00 0.00 68 1014.4
20260504234548 72 158 4.0 10.0 0.00 0.00 0.00 67 1014.5
20260504233106 73 153 1.0 6.0 0.00 0.00 0.00 67 1014.7
20260504231550 73 153 2.0 7.0 0.00 0.00 0.00 67 1015.0
20260504230056 74 161 4.0 11.0 0.00 0.00 0.00 66 1015.1
20260504224551 74 155 3.0 10.0 0.00 0.00 0.00 65 1015.1
20260504223046 75 171 4.0 12.0 0.00 0.00 0.00 65 1015.2
20260504221542 75 184 3.0 11.0 0.00 0.00 0.00 64 1015.3
20260504220050 75 162 4.0 9.0 0.00 0.00 0.00 64 1015.4
20260504214554 76 155 2.0 10.0 0.00 0.00 0.00 63 1015.5
20260504213045 76 150 3.0 13.0 0.00 0.00 0.00 63 1015.7
20260504211546 76 173 4.0 11.0 0.00 0.00 0.00 63 1016.0
20260504210045 76 133 3.0 9.0 0.00 0.00 0.00 62 1015.8
20260504204557 76 157 2.0 6.0 0.00 0.00 0.00 64 1016.2
20260504203103 76 167 2.0 10.0 0.00 0.00 0.00 62 1016.3
20260504201549 76 157 3.0 10.0 0.00 0.00 0.00 64 1016.7
20260504200046 76 147 2.0 11.0 0.00 0.00 0.00 62 1017.0
20260504194544 76 167 6.0 12.0 0.00 0.00 0.00 63 1017.1
20260504193049 76 164 6.0 12.0 0.00 0.00 0.00 64 1017.4
20260504191547 76 133 4.0 10.0 0.00 0.00 0.00 63 1017.7
20260504190106 76 163 2.0 10.0 0.00 0.00 0.00 64 1017.7
20260504184545 76 163 5.0 13.0 0.00 0.00 0.00 64 1017.7
20260504183045 76 242 6.0 12.0 0.00 0.00 0.00 65 1017.9
20260504181550 76 159 6.0 13.0 0.00 0.00 0.00 64 1018.0
20260504180049 76 171 5.0 12.0 0.00 0.00 0.00 64 1018.0
20260504174546 76 169 2.0 11.0 0.00 0.00 0.00 65 1018.1
20260504173058 75 158 4.0 11.0 0.00 0.00 0.00 65 1018.4
20260504171551 75 152 3.0 10.0 0.00 0.00 0.00 66 1018.7
20260504081549 55 0 0.0 0.0 0.00 0.00 0.00 75 1018.8
20260504050103 59 0 0.0 0.0 0.00 0.00 0.00 67 1020.0
20260504044550 59 0 0.0 0.0 0.00 0.00 0.00 67 1019.9
20260504043106 60 0 0.0 0.0 0.00 0.00 0.00 66 1020.2
20260504041547 61 0 0.0 0.0 0.00 0.00 0.00 66 1020.4
20260504040045 61 0 0.0 0.0 0.00 0.00 0.00 69 1020.4
20260504034549 62 0 0.0 0.0 0.00 0.00 0.00 63 1020.4
20260504033056 63 0 0.0 0.0 0.00 0.00 0.00 63 1020.5
20260504031556 63 0 0.0 0.0 0.00 0.00 0.00 63 1020.3
20260504030047 64 0 0.0 0.0 0.00 0.00 0.00 63 1020.5
20260504024540 64 0 0.0 0.0 0.00 0.00 0.00 62 1020.2